Overview Statistics Trail Chart Weather Telemetry Raw packets
 

This is the latest recevied weather packets stored in our database for station/object VE6HFD-WX. If no packets are shown the sender has not sent any weather packets the latest 10 day(s).

<< 5 6 7 8 9 10 11 >>
Time Temp. Humidity Pressure Rain* Wind** Luminosity Snow
1788578919 12.78° C 81% 1013.2 hPa 0 mm - - -
1788578589 13.33° C 81% 1013.1 hPa 0 mm - - -
1788578259 13.33° C 80% 1013 hPa 0 mm - - -
1788577959 13.33° C 80% 1013.1 hPa 0 mm - - -
1788577629 13.33° C 79% 1013 hPa 0 mm - - -
1788577299 13.89° C 79% 1013 hPa 0 mm - - -
1788576999 13.89° C 77% 1013 hPa 0 mm - - -
1788576669 13.89° C 76% 1012.8 hPa 0 mm - - -
1788576339 14.44° C 75% 1012.9 hPa 0 mm - - -
1788576009 14.44° C 75% 1012.7 hPa 0 mm - - -
1788575709 14.44° C 74% 1012.5 hPa 0 mm - - -
1788575379 15° C 73% 1012.5 hPa 0 mm - - -
1788575049 15° C 72% 1012.5 hPa 0 mm - - -
1788574719 15.56° C 69% 1012.4 hPa 0 mm - - -
1788574419 16.11° C 68% 1012.3 hPa 0 mm - - -
1788574119 16.11° C 67% 1012.2 hPa 0 mm - - -
1788573789 16.67° C 66% 1012.1 hPa 0 mm - - -
1788573489 17.22° C 65% 1012.1 hPa 0 mm - - -
1788573189 17.22° C 64% 1012.1 hPa 0 mm - - -
1788572859 17.78° C 63% 1012 hPa 0 mm - - -
1788572559 17.78° C 63% 1012 hPa 0 mm - - -
1788572229 18.33° C 64% 1012.1 hPa 0 mm - - -
1788571929 18.33° C 64% 1012 hPa 0 mm - - -
1788571629 18.33° C 63% 1011.9 hPa 0 mm - - -
1788571329 18.33° C 63% 1011.9 hPa 0 mm - - -

* Rain latest hour (hover to see other rain measurements)
** Current wind speed in m/s (hover to see current wind gust speed)